DW9566 Weather Reports


Display with metric or nautical units.
time (UTC)temp
F
wind
direction
speed
MPH
gust
MPH
rain 1hr
in
rain 24hr
in
rain mn
in
humidity
%
barometer
mb
20260506231625 75 211 6.0 9.0 0.00 0.00 0.00 57 1018.2
20260506230635 74 263 6.0 11.0 0.00 0.00 0.00 57 1018.4
20260506225632 74 301 4.0 14.0 0.00 0.00 0.00 56 1018.4
20260506224634 75 259 4.0 13.0 0.00 0.00 0.00 55 1018.4
20260506223617 76 159 3.0 11.0 0.00 0.00 0.00 56 1018.7
20260506222625 75 255 6.0 10.0 0.00 0.00 0.00 56 1018.9
20260506221628 75 292 5.0 11.0 0.00 0.00 0.00 55 1018.9
20260506220631 75 233 7.0 12.0 0.00 0.00 0.00 57 1018.9
20260506215650 75 245 4.0 8.0 0.00 0.00 0.00 58 1019.1
20260506214631 75 268 7.0 12.0 0.00 0.00 0.00 56 1019.1
20260506213641 75 233 7.0 12.0 0.00 0.00 0.00 57 1019.2
20260506212625 74 274 5.0 10.0 0.00 0.00 0.00 57 1019.3
20260506211629 75 235 5.0 12.0 0.00 0.00 0.00 58 1019.3
20260506210632 74 211 5.0 11.0 0.00 0.00 0.00 59 1019.4
20260506205636 74 327 3.0 12.0 0.00 0.00 0.00 58 1019.4
20260506204638 75 215 6.0 13.0 0.00 0.00 0.00 56 1019.4
20260506203622 74 242 3.0 8.0 0.00 0.00 0.00 57 1019.5
20260506202626 73 199 4.0 9.0 0.00 0.00 0.00 58 1019.9
20260506201627 72 192 3.0 9.0 0.00 0.00 0.00 60 1019.9
20260506200635 72 272 6.0 10.0 0.00 0.00 0.00 58 1020.0
20260506195632 72 256 6.0 11.0 0.00 0.00 0.00 59 1020.1
20260506194635 72 271 3.0 11.0 0.00 0.00 0.00 59 1020.1
20260506193616 72 271 3.0 9.0 0.00 0.00 0.00 60 1020.2
20260506192643 72 215 5.0 11.0 0.00 0.00 0.00 60 1020.4
20260506191626 73 220 5.0 10.0 0.00 0.00 0.00 58 1020.4
20260506190629 72 267 5.0 9.0 0.00 0.00 0.00 61 1020.4
20260506185630 71 231 3.0 9.0 0.00 0.00 0.00 60 1020.4
20260506184616 71 250 3.0 7.0 0.00 0.00 0.00 61 1020.4
20260506183618 70 290 1.0 8.0 0.00 0.00 0.00 62 1020.5
20260506182622 69 200 5.0 7.0 0.00 0.00 0.00 64 1020.5
20260506181625 69 279 3.0 8.0 0.00 0.00 0.00 63 1020.5
20260506180648 69 153 2.0 8.0 0.00 0.00 0.00 59 1020.5
20260506175630 69 99 4.0 6.0 0.00 0.00 0.00 64 1020.5
20260506174636 68 217 3.0 7.0 0.00 0.00 0.00 65 1020.5
20260506173621 68 198 4.0 10.0 0.00 0.00 0.00 64 1020.5
20260506172623 67 192 4.0 7.0 0.00 0.00 0.00 66 1020.5
20260506171652 68 223 4.0 6.0 0.00 0.00 0.00 65 1020.5
20260506170634 67 209 3.0 7.0 0.00 0.00 0.00 68 1020.6
20260506165618 66 132 4.0 7.0 0.00 0.00 0.00 69 1020.6
20260506164620 63 200 2.0 7.0 0.00 0.00 0.00 70 1020.6
20260506163622 62 222 3.0 5.0 0.00 0.00 0.00 72 1020.6
20260506162630 60 192 1.0 2.0 0.00 0.00 0.00 72 1020.6
20260506161653 60 239 1.0 3.0 0.00 0.00 0.00 73 1020.6
20260506160634 60 271 2.0 3.0 0.00 0.00 0.00 73 1020.6
20260506155631 59 196 0.0 4.0 0.00 0.01 0.00 74 1020.6
20260506154616 59 203 2.0 4.0 0.00 0.01 0.00 76 1020.6
20260506153643 59 219 2.0 5.0 0.00 0.01 0.00 75 1020.6
20260506152629 58 172 1.0 2.0 0.00 0.01 0.00 76 1020.5
20260506151650 58 172 1.0 4.0 0.00 0.01 0.00 75 1020.5
20260506150614 58 22 1.0 2.0 0.00 0.01 0.00 77 1020.5
20260506145619 57 272 1.0 1.0 0.00 0.01 0.00 78 1020.5
20260506144622 57 272 1.0 2.0 0.00 0.01 0.00 80 1020.5
20260506143627 56 276 0.0 0.0 0.00 0.01 0.00 82 1020.5
20260506142631 54 276 0.0 0.0 0.00 0.01 0.00 82 1020.3
20260506141617 53 277 0.0 0.0 0.00 0.01 0.00 81 1020.3
20260506140622 53 277 0.0 0.0 0.00 0.01 0.00 81 1020.0
20260506135643 53 277 0.0 0.0 0.00 0.01 0.00 81 1019.9
20260506134624 54 277 0.0 1.0 0.00 0.01 0.00 80 1019.9
20260506133629 54 277 1.0 2.0 0.00 0.01 0.00 80 1019.9
20260506132635 54 277 0.0 2.0 0.00 0.01 0.00 80 1019.8
20260506131617 54 277 0.0 0.0 0.00 0.01 0.00 80 1019.8
20260506130622 54 277 0.0 3.0 0.00 0.01 0.00 80 1019.5
20260506125619 54 277 1.0 2.0 0.00 0.01 0.00 79 1019.5
20260506124646 54 277 0.0 1.0 0.00 0.01 0.00 79 1019.5
20260506123630 54 277 1.0 4.0 0.00 0.01 0.00 79 1019.5
20260506122633 54 267 1.0 4.0 0.00 0.01 0.00 79 1019.4
20260506121635 54 281 1.0 3.0 0.00 0.01 0.00 79 1019.4
20260506120622 54 290 0.0 2.0 0.00 0.01 0.00 79 1019.5
20260506115618 54 285 0.0 3.0 0.00 0.01 0.00 80 1019.4
20260506114641 54 296 1.0 2.0 0.00 0.01 0.00 80 1019.4
20260506113623 54 277 1.0 3.0 0.00 0.01 0.00 80 1019.2
20260506112625 54 263 1.0 3.0 0.00 0.01 0.00 80 1019.0
20260506111634 54 261 2.0 4.0 0.00 0.01 0.00 80 1019.0
20260506110657 54 274 1.0 4.0 0.00 0.01 0.00 80 1019.0
20260506105634 54 290 1.0 4.0 0.00 0.01 0.00 80 1019.0
20260506104616 54 277 2.0 3.0 0.00 0.01 0.00 80 1019.0
20260506103623 54 288 0.0 4.0 0.00 0.01 0.00 80 1019.0
20260506102629 54 339 0.0 3.0 0.00 0.01 0.00 80 1018.9
20260506101614 54 269 2.0 3.0 0.00 0.01 0.00 80 1018.9
20260506100639 54 308 1.0 4.0 0.00 0.01 0.00 81 1018.9
20260506095623 54 287 0.0 2.0 0.00 0.02 0.00 81 1018.9
20260506094630 53 327 1.0 3.0 0.00 0.02 0.00 81 1018.9
20260506093632 53 271 2.0 3.0 0.00 0.02 0.00 81 1018.9
20260506092618 53 269 1.0 3.0 0.00 0.02 0.00 81 1018.9
20260506091641 53 318 0.0 3.0 0.00 0.02 0.00 81 1018.9
20260506090628 54 269 1.0 3.0 0.00 0.02 0.00 81 1018.9
20260506085632 54 275 1.0 2.0 0.00 0.06 0.00 81 1018.9
20260506084639 54 275 0.0 3.0 0.00 0.06 0.00 81 1018.9
20260506083621 54 263 2.0 3.0 0.00 0.06 0.00 81 1018.9
20260506082643 54 263 2.0 4.0 0.00 0.06 0.00 81 1019.0
20260506081631 54 306 1.0 4.0 0.00 0.06 0.00 81 1019.0
20260506080634 54 310 0.0 3.0 0.00 0.06 0.00 81 1019.0
20260506072642 53 276 2.0 5.0 0.00 0.09 0.06 81 1018.6
20260506071624 53 265 3.0 6.0 0.00 0.09 0.06 82 1018.6
20260506070647 53 257 4.0 6.0 0.00 0.09 0.06 82 1018.5
20260506061621 53 263 3.0 4.0 0.00 0.10 0.06 80 1018.3
20260506060630 54 292 2.0 3.0 0.00 0.10 0.06 80 1018.4
20260506050626 55 242 4.0 8.0 0.00 0.11 0.06 78 1017.9
20260506044628 55 293 3.0 7.0 0.00 0.11 0.06 78 1017.8
20260506043615 55 269 4.0 8.0 0.00 0.11 0.06 78 1017.5
20260506042620 55 229 3.0 7.0 0.00 0.11 0.06 78 1017.4
20260506041622 56 228 3.0 4.0 0.00 0.11 0.06 78 1017.4
20260506040629 56 232 3.0 5.0 0.00 0.11 0.06 78 1017.3
20260506035647 56 220 4.0 7.0 0.00 0.11 0.06 78 1017.1
20260506034628 56 222 3.0 7.0 0.00 0.11 0.06 77 1017.1
20260506033631 56 226 3.0 8.0 0.00 0.11 0.06 77 1016.8
20260506032654 56 219 3.0 6.0 0.00 0.11 0.06 77 1016.7
20260506031619 57 221 5.0 10.0 0.00 0.11 0.06 76 1016.7
20260506030642 57 226 3.0 9.0 0.00 0.11 0.06 76 1016.3
20260506025617 57 229 4.0 7.0 0.00 0.11 0.06 75 1016.4
20260506024623 58 264 4.0 7.0 0.00 0.11 0.06 74 1016.4
20260506023630 58 236 5.0 9.0 0.00 0.11 0.06 74 1016.3
20260506022617 58 238 4.0 10.0 0.00 0.11 0.06 74 1016.2
20260506021619 59 216 7.0 11.0 0.00 0.11 0.06 73 1016.2
20260506020621 59 234 5.0 10.0 0.00 0.11 0.06 73 1016.1
20260506015620 59 202 6.0 9.0 0.00 0.11 0.06 73 1015.9
20260506014627 60 211 5.0 10.0 0.00 0.11 0.06 73 1015.9
20260506013632 60 234 4.0 10.0 0.00 0.11 0.06 72 1015.9
20260506012654 60 221 5.0 8.0 0.00 0.11 0.06 72 1016.0
20260506011656 60 252 6.0 10.0 0.00 0.11 0.06 72 1016.0
20260506010657 61 227 6.0 10.0 0.00 0.11 0.06 72 1015.9
20260506005619 61 222 5.0 10.0 0.00 0.11 0.06 71 1015.8
20260506004621 61 277 5.0 10.0 0.00 0.11 0.06 72 1015.8
20260506003623 61 217 7.0 9.0 0.00 0.11 0.06 72 1015.8
20260506002626 61 225 5.0 8.0 0.00 0.11 0.06 71 1015.7
20260506001614 61 204 5.0 8.0 0.00 0.11 0.06 71 1015.7
20260506000621 61 221 4.0 9.0 0.00 0.11 0.06 70 1015.6
20260505235617 61 257 3.0 8.0 0.00 0.11 0.06 71 1015.7
20260505234619 61 292 5.0 9.0 0.00 0.11 0.06 72 1015.7
20260505233628 61 242 5.0 9.0 0.00 0.11 0.06 71 1015.7
20260505232633 61 261 3.0 9.0 0.00 0.11 0.06 72 1015.7